Location: Clermont
(50.2608°N, 4.3172°E)
Time: 02:37:12
(UTC+00:00)

ERS-1 Rocket - Pass Details

Date: 13 August 2020
Orbit: 753 x 757 km, 98.5° (Epoch: 25 September)

Event Time Altitude Azimuth Distance (km) Brightness Sun altitude
Exits shadow 21:36:12 27° 192° (SSW) 1,439 4.0 -19.3°
Maximum altitude 21:38:50 56° 259° (W) 901 3.4 -19.5°
Drops below altitude 10° 21:43:48 10° 338° (NNW) 2,292 6.6 -20.0°
Sets 21:46:09 0° 343° (NNW) 3,221 7.7 -20.2°
